STARLINK-3886 (52582 NORAD) Tracking and Keplerian Element Data

This shows tracking and keplerian element data for the satellite.

Feedback or suggestion? Click here.




ElementValue
Catalog52582
NameSTARLINK-3886
Epoch Orbit130
Epoch Day167.08334491
Epoch Year2022
RAAN128.9789
Inclination53.2164
Eccentricity0.0002733
Argument of Perigee13.1721
Mean Anonmoly61.4947
Mean Motion15.73234057
Decay Rate0.00029313
L11 52582U 22051AY 22167.08334491 .00029313 00000+0 21222-3 0 9991
L22 52582 53.2164 128.9789 0002733 13.1721 61.4947 15.73234057 1301

Live tracking and technical data element details for STARLINK-3886 (NORAD 52582). STARLINK-3886 can be tracked NOW for your location showing map with azimuth and elevation plus other details from your city location.

Track the satellite on the map from your city or location and see movement details for azimuth, elevation, latitude, longitude, range, height, and movement on the map or in text.







IsCatalogInMostPopularTable: catalog: 52582, numindb: 3
Update: records affected: 1



GetName: 52582 STARLINK-3886

Hit Count: updated at: Mon, 27 Jun 2022 06:21:19 GMT